GW4340 Weather Reports


Display with metric or nautical units.
time (UTC)temp
F
wind
direction
speed
MPH
gust
MPH
rain 1hr
in
rain 24hr
in
rain mn
in
humidity
%
barometer
mb
20260506122622 79 0.0 0.0 0.00 0.00 0.00 32 1010.9
20260506121737 79 0.0 0.0 0.00 0.00 0.00 31 1011.0
20260506120822 79 0.0 0.0 0.00 0.00 0.00 30 1011.0
20260506115922 78 0.0 0.0 0.00 0.00 0.00 33 1011.3
20260506115022 77 0.0 0.0 0.00 0.00 0.00 34 1011.5
20260506114138 75 0.0 0.0 0.00 0.00 0.00 32 1012.0
20260506113222 74 0.0 0.0 0.00 0.00 0.00 36 1012.4
20260506112322 75 0.0 0.0 0.00 0.00 0.00 34 1012.3
20260506111437 77 0.0 0.0 0.00 0.00 0.00 37 1011.8
20260506110522 77 0.0 0.0 0.00 0.00 0.00 34 1011.9
20260506105622 78 0.0 0.0 0.00 0.00 0.00 35 1011.7
20260506104722 78 0.0 0.0 0.00 0.00 0.00 37 1012.0
20260506103822 77 0.0 0.0 0.00 0.00 0.00 38 1012.1
20260506102922 77 0.0 0.0 0.00 0.00 0.00 37 1012.1
20260506102022 76 0.0 0.0 0.00 0.00 0.00 39 1012.3
20260506101122 76 0.0 0.0 0.00 0.00 0.00 39 1012.4
20260506100222 75 0.0 0.0 0.00 0.00 0.00 36 1012.5
20260506095322 75 0.0 0.0 0.00 0.00 0.00 38 1012.7
20260506094438 75 0.0 0.0 0.00 0.00 0.00 38 1012.7
20260506093522 75 0.0 0.0 0.00 0.00 0.00 41 1012.9
20260506092638 74 0.0 0.0 0.00 0.00 0.00 36 1013.0
20260506091722 74 0.0 0.0 0.00 0.00 0.00 36 1013.0
20260506090822 74 0.0 0.0 0.00 0.00 0.00 39 1013.1
20260506085922 73 0.0 0.0 0.00 0.00 0.00 40 1013.2
20260506085038 73 0.0 0.0 0.00 0.00 0.00 35 1013.3
20260506084123 73 0.0 0.0 0.00 0.00 0.00 39 1013.3
20260506083222 73 0.0 0.0 0.00 0.00 0.00 38 1013.2
20260506082322 72 0.0 0.0 0.00 0.00 0.00 42 1013.3
20260506081422 73 0.0 0.0 0.00 0.00 0.00 38 1013.1
20260506080522 73 0.0 0.0 0.00 0.00 0.00 38 1013.1
20260506072937 74 0.0 0.0 0.00 0.00 0.00 39 1013.1
20260506072023 73 0.0 0.0 0.00 0.00 0.00 39 1013.1
20260506071122 74 0.0 0.0 0.00 0.00 0.00 36 1013.0
20260506070222 78 0.0 0.0 0.00 0.00 0.00 33 1012.4
20260506061722 81 0.0 0.0 0.00 0.00 0.00 38 1011.9
20260506060823 80 0.0 0.0 0.00 0.00 0.00 40 1012.0
20260506050522 62 0.0 0.0 0.00 0.00 0.00 77 1014.2
20260506044722 55 0.0 0.0 0.00 0.00 0.00 98 1015.2
20260506043823 53 0.0 0.0 0.00 0.00 0.00 10 1015.4
20260506042937 51 0.0 0.0 0.00 0.00 0.00 10 1015.8
20260506042023 49 0.0 0.0 0.00 0.00 0.00 10 1016.1
20260506041122 47 0.0 0.0 0.00 0.00 0.00 10 1016.3
20260506040222 47 0.0 0.0 0.00 0.00 0.00 10 1016.3
20260506035323 47 0.0 0.0 0.00 0.00 0.00 10 1016.4
20260506034422 47 0.0 0.0 0.00 0.00 0.00 10 1016.4
20260506033522 46 0.0 0.0 0.00 0.00 0.00 10 1016.5
20260506032622 46 0.0 0.0 0.00 0.00 0.00 10 1016.3
20260506031722 46 0.0 0.0 0.00 0.00 0.00 10 1016.3
20260506030822 46 0.0 0.0 0.00 0.00 0.00 10 1016.2
20260506025937 46 0.0 0.0 0.00 0.00 0.00 10 1016.2
20260506025022 46 0.0 0.0 0.00 0.00 0.00 10 1016.1
20260506024137 47 0.0 0.0 0.00 0.00 0.00 10 1016.0
20260506023222 48 0.0 0.0 0.00 0.00 0.00 10 1015.9
20260506022322 47 0.0 0.0 0.00 0.00 0.00 10 1015.9
20260506021422 47 0.0 0.0 0.00 0.00 0.00 10 1015.9
20260506020522 47 0.0 0.0 0.00 0.00 0.00 10 1016.0
20260506015622 47 0.0 0.0 0.00 0.00 0.00 10 1016.1
20260506014722 47 0.0 0.0 0.00 0.00 0.00 10 1016.0
20260506013822 47 0.0 0.0 0.00 0.00 0.00 10 1016.1
20260506012922 46 0.0 0.0 0.00 0.00 0.00 10 1016.1
20260506012023 47 0.0 0.0 0.00 0.00 0.00 10 1016.2
20260506011122 47 0.0 0.0 0.00 0.00 0.00 10 1016.2
20260506010222 47 0.0 0.0 0.00 0.00 0.00 10 1016.1
20260506005353 47 0.0 0.0 0.00 0.00 0.00 10 1016.0
20260506004438 47 0.0 0.0 0.00 0.00 0.00 10 1016.0
20260506003522 47 0.0 0.0 0.00 0.00 0.00 10 1015.9
20260506002622 46 0.0 0.0 0.00 0.00 0.00 10 1016.1
20260506001723 47 0.0 0.0 0.00 0.00 0.00 10 1016.1
20260506000822 48 0.0 0.0 0.00 0.00 0.00 10 1015.9
20260505235922 49 0.0 0.0 0.00 0.00 0.00 99 1015.7
20260505235022 48 0.0 0.0 0.00 0.00 0.00 10 1016.0
20260505234122 48 0.0 0.0 0.00 0.00 0.00 10 1016.1
20260505233222 48 0.0 0.0 0.00 0.00 0.00 10 1016.2
20260505232337 48 0.0 0.0 0.00 0.00 0.00 10 1016.2
20260505231422 48 0.0 0.0 0.00 0.00 0.00 10 1016.3
20260505230537 49 0.0 0.0 0.00 0.00 0.00 10 1016.3
20260505225637 49 0.0 0.0 0.00 0.00 0.00 10 1016.2
20260505224722 49 0.0 0.0 0.00 0.00 0.00 10 1016.2
20260505223838 49 0.0 0.0 0.00 0.00 0.00 10 1016.3
20260505222922 50 0.0 0.0 0.00 0.00 0.00 10 1016.2
20260505222022 50 0.0 0.0 0.00 0.00 0.00 10 1016.3
20260505221123 50 0.0 0.0 0.00 0.00 0.00 10 1016.3
20260505220222 50 0.0 0.0 0.00 0.00 0.00 10 1016.1
20260505215322 51 0.0 0.0 0.00 0.00 0.00 10 1016.1
20260505214437 50 0.0 0.0 0.00 0.00 0.00 10 1016.2
20260505213522 50 0.0 0.0 0.00 0.00 0.00 10 1016.2
20260505212622 51 0.0 0.0 0.00 0.00 0.00 10 1016.0
20260505211738 51 0.0 0.0 0.00 0.00 0.00 10 1016.2
20260505210822 51 0.0 0.0 0.00 0.00 0.00 10 1016.2
20260505205922 51 0.0 0.0 0.00 0.00 0.00 10 1016.3
20260505205022 51 0.0 0.0 0.00 0.00 0.00 10 1016.3
20260505204157 51 0.0 0.0 0.00 0.00 0.00 10 1016.2
20260505203222 52 0.0 0.0 0.00 0.00 0.00 10 1016.2
20260505202322 53 0.0 0.0 0.00 0.00 0.00 10 1016.1
20260505201437 53 0.0 0.0 0.00 0.00 0.00 99 1016.0
20260505200522 53 0.0 0.0 0.00 0.00 0.00 10 1016.1
20260505195637 54 0.0 0.0 0.00 0.00 0.00 99 1015.9
20260505194722 54 0.0 0.0 0.00 0.00 0.00 99 1015.9
20260505193823 55 0.0 0.0 0.00 0.00 0.00 91 1015.8
20260505192922 54 0.0 0.0 0.00 0.00 0.00 95 1015.9
20260505192022 54 0.0 0.0 0.00 0.00 0.00 10 1015.9
20260505191122 54 0.0 0.0 0.00 0.00 0.00 97 1015.7
20260505190222 54 0.0 0.0 0.00 0.00 0.00 10 1015.8
20260505185322 55 0.0 0.0 0.00 0.00 0.00 96 1015.7
20260505184422 55 0.0 0.0 0.00 0.00 0.00 94 1015.6
20260505183522 55 0.0 0.0 0.00 0.00 0.00 93 1015.5
20260505182622 56 0.0 0.0 0.00 0.00 0.00 90 1015.4
20260505181722 56 0.0 0.0 0.00 0.00 0.00 88 1015.2
20260505180822 57 0.0 0.0 0.00 0.00 0.00 84 1015.1
20260505175923 57 0.0 0.0 0.00 0.00 0.00 83 1014.9
20260505175022 58 0.0 0.0 0.00 0.00 0.00 78 1014.8
20260505174122 59 0.0 0.0 0.00 0.00 0.00 77 1014.4
20260505173222 60 0.0 0.0 0.00 0.00 0.00 75 1014.3
20260505172323 62 0.0 0.0 0.00 0.00 0.00 73 1014.0
20260505171437 63 0.0 0.0 0.00 0.00 0.00 65 1013.8
20260505170522 65 0.0 0.0 0.00 0.00 0.00 61 1013.6
20260505165622 67 0.0 0.0 0.00 0.00 0.00 56 1013.3
20260505164722 68 0.0 0.0 0.00 0.00 0.00 51 1013.1
20260505163822 70 0.0 0.0 0.00 0.00 0.00 49 1012.9
20260505162922 70 0.0 0.0 0.00 0.00 0.00 46 1012.9
20260505162022 70 0.0 0.0 0.00 0.00 0.00 43 1012.8
20260505161122 70 0.0 0.0 0.00 0.00 0.00 43 1012.8
20260505160222 70 0.0 0.0 0.00 0.00 0.00 42 1012.9
20260505152622 72 0.0 0.0 0.00 0.00 0.00 39 1012.7
20260505151722 73 0.0 0.0 0.00 0.00 0.00 38 1012.8
20260505150822 73 0.0 0.0 0.00 0.00 0.00 39 1012.7
20260505140522 74 0.0 0.0 0.00 0.00 0.00 39 1012.6
20260505130238 74 0.0 0.0 0.00 0.00 0.00 35 1012.9
20260505124422 74 0.0 0.0 0.00 0.00 0.00 36 1012.9
20260505123537 74 0.0 0.0 0.00 0.00 0.00 36 1013.0